When you browse on this site, cookies collect data to enhance your experience and personalize the content and advertising you see.
Visit our Privacy Policy to learn more. By continuing to use the site, you agree to this use of cookies and data.
EN

Hourly Weather Naples

Today, 9 August, Sunday

Time Temperature Precipitation Wind Pressure Humidity
00:00 +30°C° 0 mm 3 mps 764 mmHg 78%
01:00 +29°C° 0 mm 3 mps 764 mmHg 80%
02:00 +29°C° 0.3 mm 3 mps 764 mmHg 82%
03:00 +29°C° 0.3 mm 3 mps 763 mmHg 84%
04:00 +28°C° 0.3 mm 3 mps 763 mmHg 85%
05:00 +29°C° 0.1 mm 3 mps 763 mmHg 85%
06:00 +29°C° 0.1 mm 3 mps 764 mmHg 85%
07:00 +29°C° 0.1 mm 2 mps 764 mmHg 84%
08:00 +30°C° 0 mm 2 mps 764 mmHg 76%
09:00 +32°C° 0 mm 2 mps 764 mmHg 68%
10:00 +34°C° 0 mm 2 mps 764 mmHg 59%
11:00 +35°C° 0.2 mm 2 mps 764 mmHg 56%
12:00 +36°C° 0.2 mm 2 mps 764 mmHg 53%
13:00 +37°C° 0.2 mm 2 mps 764 mmHg 50%
14:00 +36°C° 0.7 mm 2 mps 764 mmHg 54%
15:00 +35°C° 0.7 mm 2 mps 763 mmHg 57%
16:00 +35°C° 0.7 mm 2 mps 762 mmHg 61%
17:00 +34°C° 1.2 mm 2 mps 763 mmHg 63%
18:00 +32°C° 1.2 mm 1 mps 763 mmHg 66%
19:00 +32°C° 1.2 mm 1 mps 763 mmHg 69%
20:00 +32°C° 0.6 mm 1 mps 763 mmHg 70%
21:00 +31°C° 0.6 mm 1 mps 763 mmHg 72%
22:00 +31°C° 0.6 mm 1 mps 764 mmHg 74%
23:00 +30°C° 0 mm 2 mps 763 mmHg 76%

Tomorrow, 10 August, Monday

Time Temperature Precipitation Wind Pressure Humidity
00:00 +30°C° 0 mm 2 mps 763 mmHg 78%
01:00 +30°C° 0 mm 2 mps 763 mmHg 80%
02:00 +29°C° 0 mm 2 mps 763 mmHg 81%
03:00 +29°C° 0 mm 2 mps 762 mmHg 82%
04:00 +29°C° 0 mm 2 mps 762 mmHg 83%
05:00 +29°C° 0 mm 2 mps 762 mmHg 82%
06:00 +29°C° 0 mm 2 mps 762 mmHg 82%
07:00 +29°C° 0 mm 2 mps 763 mmHg 81%
08:00 +30°C° 0 mm 2 mps 763 mmHg 74%
09:00 +32°C° 0 mm 2 mps 763 mmHg 67%
10:00 +34°C° 0 mm 2 mps 763 mmHg 60%
11:00 +35°C° 0 mm 2 mps 763 mmHg 56%
12:00 +36°C° 0 mm 2 mps 763 mmHg 52%
13:00 +37°C° 0 mm 2 mps 763 mmHg 48%
14:00 +36°C° 0.5 mm 2 mps 762 mmHg 52%
15:00 +35°C° 0.5 mm 2 mps 762 mmHg 56%
16:00 +35°C° 0.5 mm 2 mps 761 mmHg 60%
17:00 +34°C° 1.2 mm 2 mps 761 mmHg 63%
18:00 +34°C° 1.2 mm 2 mps 761 mmHg 65%
19:00 +32°C° 1.2 mm 2 mps 761 mmHg 68%
20:00 +32°C° 0.5 mm 2 mps 761 mmHg 70%
21:00 +31°C° 0.5 mm 2 mps 761 mmHg 72%
22:00 +31°C° 0.5 mm 2 mps 762 mmHg 74%
23:00 +30°C° 0 mm 1 mps 761 mmHg 75%

Day after tomorrow, 11 August, Tuesday

Time Temperature Precipitation Wind Pressure Humidity
00:00 +30°C° 0 mm 1 mps 761 mmHg 77%
01:00 +30°C° 0 mm 1 mps 761 mmHg 78%
02:00 +29°C° 0 mm 1 mps 761 mmHg 79%
03:00 +29°C° 0 mm 1 mps 760 mmHg 81%
04:00 +29°C° 0 mm 2 mps 760 mmHg 82%
05:00 +29°C° 0 mm 2 mps 760 mmHg 82%
06:00 +29°C° 0 mm 2 mps 761 mmHg 81%
07:00 +29°C° 0 mm 2 mps 761 mmHg 80%
08:00 +30°C° 0.1 mm 2 mps 761 mmHg 74%
09:00 +33°C° 0.1 mm 3 mps 761 mmHg 68%
10:00 +34°C° 0.1 mm 3 mps 761 mmHg 62%
11:00 +35°C° 0 mm 3 mps 761 mmHg 57%
12:00 +36°C° 0 mm 3 mps 761 mmHg 52%
13:00 +37°C° 0 mm 3 mps 761 mmHg 47%
14:00 +36°C° 0.1 mm 3 mps 761 mmHg 51%
15:00 +36°C° 0.1 mm 4 mps 760 mmHg 55%
16:00 +35°C° 0.1 mm 4 mps 760 mmHg 59%
17:00 +34°C° 1.3 mm 4 mps 760 mmHg 63%
18:00 +33°C° 1.3 mm 3 mps 760 mmHg 68%
19:00 +31°C° 1.3 mm 3 mps 760 mmHg 72%
20:00 +31°C° 0.4 mm 2 mps 760 mmHg 72%
21:00 +31°C° 0.4 mm 1 mps 761 mmHg 73%
22:00 +29°C° 0.4 mm 0 mps 761 mmHg 73%
23:00 +30°C° 0 mm 1 mps 761 mmHg 74%

12 August, Wednesday

Time Temperature Precipitation Wind Pressure Humidity
00:00 +30°C° 0 mm 2 mps 760 mmHg 76%
01:00 +29°C° 0 mm 3 mps 760 mmHg 77%
02:00 +29°C° 0 mm 3 mps 760 mmHg 78%
03:00 +29°C° 0 mm 3 mps 760 mmHg 79%
04:00 +28°C° 0 mm 3 mps 760 mmHg 81%
05:00 +28°C° 0 mm 3 mps 760 mmHg 80%
06:00 +28°C° 0 mm 3 mps 761 mmHg 80%
07:00 +28°C° 0 mm 3 mps 761 mmHg 80%
08:00 +30°C° 0 mm 3 mps 761 mmHg 72%
09:00 +33°C° 0 mm 3 mps 762 mmHg 63%
10:00 +34°C° 0 mm 3 mps 762 mmHg 55%
11:00 +35°C° 0 mm 3 mps 762 mmHg 51%
12:00 +36°C° 0 mm 3 mps 761 mmHg 48%
13:00 +37°C° 0 mm 3 mps 761 mmHg 45%
14:00 +37°C° 0 mm 3 mps 761 mmHg 47%
15:00 +36°C° 0 mm 3 mps 760 mmHg 50%
16:00 +36°C° 0 mm 3 mps 760 mmHg 52%
17:00 +35°C° 0.1 mm 3 mps 760 mmHg 57%
18:00 +34°C° 0.1 mm 2 mps 760 mmHg 61%
19:00 +32°C° 0.1 mm 2 mps 761 mmHg 66%
20:00 +31°C° 0 mm 2 mps 761 mmHg 67%
21:00 +31°C° 0 mm 1 mps 761 mmHg 68%
22:00 +31°C° 0 mm 1 mps 762 mmHg 69%
23:00 +30°C° 0 mm 1 mps 761 mmHg 70%

13 August, Thursday

Time Temperature Precipitation Wind Pressure Humidity
00:00 +30°C° 0 mm 2 mps 761 mmHg 71%
01:00 +30°C° 0 mm 2 mps 761 mmHg 72%
02:00 +29°C° 0 mm 2 mps 761 mmHg 73%
03:00 +29°C° 0 mm 3 mps 761 mmHg 75%
04:00 +28°C° 0 mm 3 mps 761 mmHg 77%
05:00 +28°C° 0 mm 3 mps 761 mmHg 78%
06:00 +28°C° 0 mm 3 mps 761 mmHg 79%
07:00 +28°C° 0 mm 3 mps 762 mmHg 80%
08:00 +30°C° 0 mm 3 mps 762 mmHg 72%
09:00 +33°C° 0 mm 3 mps 762 mmHg 64%
10:00 +34°C° 0 mm 3 mps 762 mmHg 55%
11:00 +35°C° 0 mm 3 mps 762 mmHg 51%
12:00 +36°C° 0 mm 2 mps 762 mmHg 46%
13:00 +37°C° 0 mm 2 mps 761 mmHg 42%
14:00 +37°C° 0 mm 2 mps 761 mmHg 43%
15:00 +37°C° 0 mm 3 mps 761 mmHg 44%
16:00 +37°C° 0 mm 3 mps 760 mmHg 45%
17:00 +36°C° 0.1 mm 3 mps 760 mmHg 51%
18:00 +35°C° 0.1 mm 3 mps 760 mmHg 56%
19:00 +34°C° 0.1 mm 3 mps 761 mmHg 62%
20:00 +33°C° 0.3 mm 3 mps 761 mmHg 65%
21:00 +31°C° 0.3 mm 3 mps 761 mmHg 68%
22:00 +32°C° 0.3 mm 4 mps 762 mmHg 71%
23:00 +30°C° 0 mm 3 mps 761 mmHg 73%

14 August, Friday

Time Temperature Precipitation Wind Pressure Humidity
00:00 +30°C° 0 mm 3 mps 761 mmHg 75%
01:00 +29°C° 0 mm 3 mps 761 mmHg 77%
02:00 +29°C° 0 mm 3 mps 761 mmHg 78%
03:00 +28°C° 0 mm 3 mps 760 mmHg 80%
04:00 +28°C° 0 mm 4 mps 760 mmHg 82%
05:00 +28°C° 0 mm 4 mps 761 mmHg 82%
06:00 +28°C° 0 mm 4 mps 761 mmHg 82%
07:00 +28°C° 0 mm 4 mps 761 mmHg 83%
08:00 +30°C° 0 mm 3 mps 761 mmHg 74%
09:00 +33°C° 0 mm 3 mps 762 mmHg 66%
10:00 +35°C° 0 mm 3 mps 762 mmHg 57%
11:00 +35°C° 0 mm 3 mps 762 mmHg 53%
12:00 +36°C° 0 mm 3 mps 761 mmHg 50%
13:00 +37°C° 0 mm 2 mps 761 mmHg 46%
14:00 +37°C° 1.7 mm 2 mps 761 mmHg 50%
15:00 +36°C° 1.7 mm 2 mps 760 mmHg 53%
16:00 +35°C° 1.7 mm 2 mps 760 mmHg 57%
17:00 +34°C° 1.1 mm 2 mps 760 mmHg 61%
18:00 +32°C° 1.1 mm 2 mps 760 mmHg 65%
19:00 +31°C° 1.1 mm 2 mps 760 mmHg 69%
20:00 +31°C° 0.2 mm 2 mps 761 mmHg 70%
21:00 +31°C° 0.2 mm 2 mps 761 mmHg 71%
22:00 +30°C° 0.2 mm 2 mps 761 mmHg 72%
23:00 +30°C° 0 mm 2 mps 761 mmHg 75%
Show more